Location: Capelle
(50.3413°N, 1.9974°E)
Time: 13:42:03
(UTC+00:00)

YAOGAN 1 - Pass Details

Date: 12 January 2026
Orbit: 605 x 607 km, 97.8° (Epoch: 16 February)

Event Time Altitude Azimuth Distance (km) Brightness Sun altitude
Rises 17:25:39 0° 141° (SE) 2,856 5.8 -11.1°
Reaches altitude 10° 17:27:56 10° 133° (SE) 1,957 4.9 -11.5°
Maximum altitude 17:31:49 36° 67° (ENE) 979 3.1 -12.1°
Drops below altitude 10° 17:35:43 10° 1° (N) 1,970 4.9 -12.6°
Sets 17:38:02 0° 353° (N) 2,879 5.9 -13.0°
